Weather History for Garrison, ND

Change the Weather History Date:

Sunday, February 10, 2013

  Actual Average Record
Temperature  
Mean Temperature 19 °F -  
Max Temperature 29 °F 23 °F 39 °F (2005)
Min Temperature 9 °F 5 °F -22 °F (2008)
Degree Days  
Heating Degree Days 46    
Month to date heating degree days 463  
Moisture  
Dew Point 19 °F    
Average Humidity 89    
Maximum Humidity 96    
Minimum Humidity 81    
Precipitation  
Precipitation 0.01 in - - ()
Month to date precipitation 0.26  
Year to date precipitation 0.76  
Sea Level Pressure  
Sea Level Pressure 29.90 in    
Wind  
Wind Speed 11 mph (NNW)    
Max Wind Speed 28 mph    
Max Gust Speed 33 mph    
Averages and records for this station are not official NWS values.
T = Trace of Precipitation, MM = Missing Value Source: NWS Daily Summary

Daily Weather History Graph

Daily Weather History Graph

Search for Another Location

Airport:

Trip Planner

Search our weather history database for the weather conditions in past years. The results will help you decide how hot, cold, wet, or windy it might be!

Date:

Astronomy

Feb. 10, 2013 Rise Set
Actual Time 7:59 AM CST 6:01 PM CST
Civil Twilight 7:26 AM CST 6:33 PM CST
Nautical Twilight 6:50 AM CST 7:10 PM CST
Astronomical Twilight 6:14 AM CST 7:45 PM CST
Moon 7:44 AM CST (2/10) 7:02 PM CST (2/10)
Length of Visible Light 11h 06m
Length of Day
10h 02m
New Moon, 0% of the Moon is Illuminated
Feb 10
New Moon
Feb 17
First Quarter
Feb 25
Full
Mar 4
Last Quarter
Mar 11
New

Hourly Weather History & Observations

Time (CST) Temp. Windchill Dew Point Humidity Pressure Visibility Wind Dir Wind Speed Gust Speed Precip Events Conditions
12:52 AM 10.9 °F - 9.0 °F 92% 29.89 in - Calm Calm - N/A   Unknown
1:52 AM 10.0 °F 1.8 °F 8.1 °F 92% 29.88 in - NNW 4.6 mph - N/A   Unknown
2:52 AM 12.0 °F 2.7 °F 9.0 °F 88% 29.86 in - North 5.8 mph - N/A   Unknown
3:52 AM 15.1 °F 7.7 °F 12.0 °F 88% 29.83 in - North 4.6 mph - N/A   Unknown
4:52 AM 19.0 °F 7.5 °F 17.1 °F 92% 29.83 in - NNW 10.4 mph - N/A   Unknown
5:52 AM 23.0 °F 12.4 °F 21.9 °F 96% 29.83 in - NNW 10.4 mph - N/A   Unknown
6:52 AM 25.0 °F 13.1 °F 23.0 °F 92% 29.83 in - NNW 13.8 mph - N/A   Unknown
7:52 AM 26.1 °F 21.9 °F 24.1 °F 92% 29.86 in - NE 3.5 mph - N/A   Unknown
8:52 AM 26.1 °F 18.4 °F 24.1 °F 92% 29.86 in - NNW 6.9 mph - N/A   Unknown
9:52 AM 28.0 °F 17.0 °F 27.0 °F 96% 29.85 in - NNW 13.8 mph - N/A   Unknown
10:52 AM 28.0 °F 17.5 °F 27.0 °F 96% 29.86 in - North 12.7 mph 19.6 mph 0.01 in   Unknown
11:52 AM 27.0 °F 15.6 °F 25.0 °F 92% 29.87 in - North 13.8 mph 21.9 mph N/A   Unknown
12:52 PM 25.0 °F 14.2 °F 23.0 °F 92% 29.87 in - North 11.5 mph - N/A   Unknown
1:52 PM 26.1 °F 13.1 °F 24.1 °F 92% 29.87 in - NNW 17.3 mph - N/A   Unknown
2:52 PM 26.1 °F 11.3 °F 23.0 °F 88% 29.87 in - NNW 23.0 mph 32.2 mph N/A   Unknown
3:52 PM 25.0 °F 8.6 °F 21.9 °F 88% 29.90 in - NNW 27.6 mph 33.4 mph N/A   Unknown
4:52 PM 24.1 °F 7.7 °F 19.9 °F 84% 29.90 in - NNW 26.5 mph 31.1 mph N/A   Unknown
5:52 PM 21.9 °F 7.3 °F 19.0 °F 89% 29.94 in - NNW 18.4 mph - N/A   Unknown
6:52 PM 19.9 °F 3.5 °F 16.0 °F 85% 29.97 in - North 21.9 mph - N/A   Unknown
7:52 PM 18.0 °F 2.2 °F 14.0 °F 84% 29.99 in - North 18.4 mph - N/A   Unknown
8:52 PM 18.0 °F 3.6 °F 15.1 °F 88% 30.00 in - NNW 15.0 mph - N/A   Unknown
9:52 PM 18.0 °F 2.2 °F 16.0 °F 92% 30.02 in - NNW 18.4 mph - N/A   Unknown
10:52 PM 19.0 °F 3.2 °F 17.1 °F 92% 30.02 in - NNW 19.6 mph - N/A   Unknown
11:52 PM 19.9 °F 4.3 °F 17.1 °F 89% 30.03 in - NNW 19.6 mph - N/A   Unknown